"Pseudo-MPEC" for C0MJAL2

Created 2019 May 24 15:07:06 UT using Find_Orb

Click here for an explanation of pseudo-MPECs

 
 Astrometry: 
     C0MJAL2  C2019 05 14.22452 14 40 25.88 -19 38 17.7    ~5E7M 19.5 GVNEOCPG96
     C0MJAL2  C2019 05 14.23014 14 40 22.34 -19 37 08.7    ~5E7M 19.8 GVNEOCPG96
     C0MJAL2  C2019 05 14.23577 14 40 18.77 -19 35 59.0    ~5E7M 20.2 GVNEOCPG96
     C0MJAL2  C2019 05 14.24139 14 40 15.13 -19 34 49.2    ~5E7M 20.1 GVNEOCPG96
     C0MJAL2  C2019 05 14.30083014 39 35.14 -19 22 21.6    ~5E87 19.6 GVNEOCPH01
     C0MJAL2  C2019 05 14.30440714 39 32.81 -19 21 35.2    ~5E87 19.7 GVNEOCPH01
     C0MJAL2  C2019 05 14.31643314 39 24.98 -19 18 57.6    ~5E87 20.0 GVNEOCPH01
     C0MJAL2  C2019 05 14.32210414 39 21.30 -19 17 43.0    ~5E87 19.7 GVNEOCPH01
     C0MJAL2  C2019 05 14.38474 14 38 41.85 -19 03 37.7    ~5E9q 21.0 GVNEOCPI52
     C0MJAL2  C2019 05 14.38547 14 38 41.41 -19 03 27.4    ~5E9q 20.8 GVNEOCPI52
     C0MJAL2  C2019 05 14.38620 14 38 40.91 -19 03 17.0    ~5E9q 19.9 GVNEOCPI52
     C0MJAL2  C2019 05 14.38693 14 38 40.46 -19 03 07.1    ~5E9q 20.0 GVNEOCPI52
     C0MJAL2 |C2019 05 15(@^rX.T8\SfC6MX??hndbNlrh11SnQk@/yuZ1UP7usNIQGhso,6w807
     C0MJAL2 |C2019 05 15ybfds?2%1-4d(Astrometry6D9kt+AGYjxZ2LPrMK$9jR3Wx/kk\807
     C0MJAL2 |C2019 05 15a_'5jH]Il5]$;3QW;\TF4A#k?f66Xrw=T2aIdo_GM[XXv5n*[\^'807
     C0MJAL2 |C2019 05 15y%=5]j2TDy;%IaQa/N7DBvZXr_!wk4F#BjV]EYntCE6^/P-:gr(:807
     C0MJAL2 |C2019 05 15W]k4redacted;NZ,H%`JOV$SnlM3B4MF*pWAakJAL0clickDQ^UV807
     C0MJAL2 KC2019 05 16nMZHkN:r;6-i8civYFqt8up_:Ifx$vlQ0nw8boTRVCD?2tR2l'$AH21
     C0MJAL2 KC2019 05 16wv'kEGi#C5/S*,herekFUEyfBC+.8Adsy+pvfau3*yVs.c#n/$#TH21
     C0MJAL2 KC2019 05 16#iQO_rgZ\:ZB00bK+v/for*,(lJ``explanationYddgA-A\X:IlH21
     C0MJAL2 KC2019 05 16P=LL'65RBe;KDsO*3.HQPi_HdAXEs/by5j6$v2C88I61xty-BP7eH21

Station data:
(807) Cerro Tololo Observatory, La Serena  (S30.169136 W70.805900)  Chile.
(G96) Mt. Lemmon Survey  (N32.442754 W110.788720)  US/Arizona.  Observers T.
   A. Pruyne, B. M. Africano, E. J. Christensen, G. A. Farneth, D. C. Fuls,
   A. R. Gibbs, A. D. Grauer, H. Groeller, J. A. Johnson, R. A. Kowalski, S.
   M. Larson, G. J. Leonard, R. L. Seaman, F. C. Shelly. 1.5-m reflector +
   10K CCD.
(H01) Magdalena Ridge Observatory, Socorro  (N33.984833 W107.189333)  US/New
   Mexico.  Observers W. H. Ryan, E. V. Ryan. Measurer W. H. Ryan. 2.4-m
   f/8.9 reflector + CCD.
(H21) Astronomical Research Observatory, Westfield  (N39.483057 W87.968270)
   US/Illinois. 0.76-m f/3.0 astrograph + CCD.
(I52) Steward Observatory, Mt. Lemmon Station  (N32.442547 W110.788920)
   US/Arizona.  Observers T. A. Pruyne, B. M. Africano, E. J. Christensen, G.
   A. Farneth, D. C. Fuls, A. R. Gibbs, A. D. Grauer, H. Groeller, J. A.
   Johnson, R. A. Kowalski, S. M. Larson, G. J. Leonard, R. L. Seaman, F. C.
   Shelly. 1.0-m reflector + CCD.

Orbital elements:  C0MJAL2
   Perihelion 2019 Aug 1.043278 +/- 0.0138 TT =  1:02:19 (JD 2458696.543278)
Epoch 2019 May 16.0 TT = JDT 2458619.5   Earth MOID: 0.0051   AutoNEOCP
M 289.56961932 +/- 0.020            (J2000 ecliptic)
n   0.91416646 +/- 0.000105         Peri.   98.53382 +/- 0.0024
a   1.05144330 +/- 8.03e-5          Node   233.68737 +/- 0.00016
e   0.2381965 +/- 0.000173          Incl.    4.57355 +/- 0.0036
P   1.08/393.79d           H 27.8   G  0.15   U  6.6  
q 0.80099311 +/- 0.000121    Q 1.30189349 +/- 0.000281
From 21 observations 2019 May 14-16 (46.9 hr); mean residual 0".25
Residuals in arcseconds: 
190514 G96  .63-  .28-    190514 H01  .30+  .21+    190515 807  .08+  .13+    
190514 G96  .24-  .21-    190514 I52  .05-  .63-    190515 807  .12+  .10+    
190514 G96  .04+  .15+    190514 I52  .35+  .34-    190515 807  .06+  .13+    
190514 G96  .56-  .44+    190514 I52  .12-  .04+    190516 H21  .21+  .04-    
190514 H01  .11+  .08+    190514 I52  .12+  .09-    190516 H21  .06+  .13-    
190514 H01  .12+  .05-    190515 807  .17+  .19+    190516 H21  .07-  .06+    
190514 H01  .16+  .25+    190515 807  .33+  .14+    190516 H21  .49-  .07-    

Ephemerides (geocentric):
Date (UTC) HH   RA              Dec         delta   r     elong  mag " sig PA
---- -- -- --  -------------   -----------  ------ ------ -----  --- ---- ---
2019 05 24 15  04 26 39.855   +49 37 16.30  .02626 .98983  29.3 28?? 21.8  44
2019 05 24 16  04 26 09.041   +49 32 07.27  .02644 .98966  29.1 28?? 21.8  44
2019 05 24 17  04 25 38.741   +49 27 01.72  .02662 .98948  29.0 28?? 21.7  44
2019 05 24 18  04 25 08.945   +49 21 59.60  .02680 .98931  28.9 28?? 21.6  44
2019 05 24 19  04 24 39.639   +49 17 00.84  .02697 .98914  28.8 28?? 21.5  43
2019 05 24 20  04 24 10.812   +49 12 05.41  .02715 .98897  28.7 28?? 21.5  43
2019 05 24 21  04 23 42.453   +49 07 13.24  .02733 .98880  28.6 28?? 21.4  43
2019 05 24 22  04 23 14.551   +49 02 24.29  .02751 .98863  28.5 28?? 21.3  43
2019 05 24 23  04 22 47.095   +48 57 38.51  .02768 .98846  28.4 28?? 21.3  43
2019 05 25 00  04 22 20.075   +48 52 55.84  .02786 .98829  28.3 28?? 21.2  43
2019 05 25 01  04 21 53.482   +48 48 16.26  .02804 .98811  28.2 28?? 21.1  43
2019 05 25 02  04 21 27.304   +48 43 39.69  .02822 .98794  28.1 28?? 21.1  43
2019 05 25 03  04 21 01.534   +48 39 06.11  .02840 .98777  28.0 28?? 21.0  43
2019 05 25 04  04 20 36.161   +48 34 35.45  .02857 .98760  27.9 28?? 20.9  43
2019 05 25 05  04 20 11.178   +48 30 07.69  .02875 .98743  27.8 28?? 20.9  43
2019 05 25 06  04 19 46.575   +48 25 42.77  .02893 .98726  27.7 28?? 20.8  42
2019 05 25 07  04 19 22.344   +48 21 20.65  .02911 .98709  27.6 28?? 20.8  42
2019 05 25 08  04 18 58.477   +48 17 01.30  .02929 .98692  27.5 28?? 20.7  42
2019 05 25 09  04 18 34.966   +48 12 44.66  .02947 .98674  27.4 28?? 20.6  42
2019 05 25 10  04 18 11.804   +48 08 30.70  .02965 .98657  27.4 28?? 20.6  42
2019 05 25 11  04 17 48.982   +48 04 19.37  .02983 .98640  27.3 29?? 20.5  42
2019 05 25 12  04 17 26.494   +48 00 10.64  .03001 .98623  27.2 29?? 20.5  42
2019 05 25 13  04 17 04.334   +47 56 04.47  .03019 .98606  27.1 29?? 20.4  42
2019 05 25 14  04 16 42.493   +47 52 00.82  .03036 .98589  27.0 29?? 20.3  42
2019 05 25 15  04 16 20.965   +47 47 59.65  .03054 .98572  26.9 29?? 20.3  42
2019 05 25 16  04 15 59.744   +47 44 00.93  .03072 .98555  26.9 29?? 20.2  42
2019 05 25 17  04 15 38.824   +47 40 04.62  .03090 .98537  26.8 29?? 20.2  42
2019 05 25 18  04 15 18.198   +47 36 10.68  .03108 .98520  26.7 29?? 20.1  42
2019 05 25 19  04 14 57.861   +47 32 19.08  .03126 .98503  26.6 29?? 20.1  42
2019 05 25 20  04 14 37.806   +47 28 29.78  .03144 .98486  26.5 29?? 20.0  41
2019 05 25 21  04 14 18.028   +47 24 42.76  .03162 .98469  26.5 29?? 20.0  41
2019 05 25 22  04 13 58.522   +47 20 57.97  .03180 .98452  26.4 29?? 19.9  41
2019 05 25 23  04 13 39.282   +47 17 15.39  .03198 .98435  26.3 29?? 19.9  41
2019 05 26 00  04 13 20.303   +47 13 34.99  .03216 .98418  26.3 29?? 19.8  41
2019 05 26 01  04 13 01.580   +47 09 56.72  .03234 .98400  26.2 29?? 19.8  41
2019 05 26 02  04 12 43.108   +47 06 20.56  .03253 .98383  26.1 29?? 19.7  41
2019 05 26 03  04 12 24.882   +47 02 46.49  .03271 .98366  26.0 29?? 19.7  41
2019 05 26 04  04 12 06.897   +46 59 14.47  .03289 .98349  26.0 29?? 19.6  41
2019 05 26 05  04 11 49.149   +46 55 44.46  .03307 .98332  25.9 29?? 19.6  41
2019 05 26 06  04 11 31.634   +46 52 16.45  .03325 .98315  25.8 29?? 19.5  41
2019 05 26 07  04 11 14.346   +46 48 50.41  .03343 .98298  25.8 29?? 19.5  41
2019 05 26 08  04 10 57.283   +46 45 26.30  .03361 .98281  25.7 29?? 19.4  41
2019 05 26 09  04 10 40.438   +46 42 04.10  .03379 .98264  25.6 29?? 19.4  41
2019 05 26 10  04 10 23.810   +46 38 43.78  .03397 .98246  25.6 29?? 19.3  41
2019 05 26 11  04 10 07.393   +46 35 25.32  .03415 .98229  25.5 29?? 19.3  41
2019 05 26 12  04 09 51.184   +46 32 08.68  .03434 .98212  25.5 29?? 19.2  41
2019 05 26 13  04 09 35.179   +46 28 53.86  .03452 .98195  25.4 29?? 19.2  40
2019 05 26 14  04 09 19.375   +46 25 40.81  .03470 .98178  25.3 29?? 19.2  40